Regional Weather Roundup
Issued by NWS

Home | Current Version | Previous Version | Text Only | Print | Product List | Glossary On
Versions: 1 2 3 4 5 6 7 8 9 10 11 12 13 14 15 16 17 18 19 20 21 22 23 24 25 26 27
000
ASUS44 KBMX 230010
RWRAL

ALABAMA REGIONAL WEATHER ROUNDUP
NATIONAL WEATHER SERVICE BIRMINGHAM AL
700 PM CDT FRI SEP 22 2017

NOTE: "FAIR" INDICATES FEW OR NO CLOUDS BELOW 12,000 FEET
WITH NO SIGNIFICANT WEATHER AND/OR OBSTRUCTIONS TO VISIBILITY.

THE REMARK "TC" DENOTES TEMPERATURE IN DEGREES CELSIUS.

ALZ001>011-014-016>018-020-230100-
NORTH ALABAMA

CITY           SKY/WX    TMP DP  RH WIND       PRES   REMARKS
MUSCLE SHOALS  CLEAR     80  70  71 CALM      29.99S
6HR MIN TEMP:  80; 6HR MAX TEMP:  90;

HUNTSVILLE     PTCLDY    81  71  71 N5        29.98S
6HR MIN TEMP:  81; 6HR MAX TEMP:  92;

DECATUR        CLEAR     76  73  91 CALM      29.98S
6HR MIN TEMP:  76; 6HR MAX TEMP:  90;

HALEYVILLE     FAIR      76  74  93 CALM      30.02S
6HR MIN TEMP:  76; 6HR MAX TEMP:  88; 6HR PCP:  0.01;

GADSDEN        CLEAR     80  73  79 CALM      29.99R
6HR MIN TEMP:  80; 6HR MAX TEMP:  91;

$$

ALZ012-013-022-023-030>036-040>044-230100-
WEST CENTRAL ALABAMA

CITY           SKY/WX    TMP DP  RH WIND       PRES   REMARKS
TUSCALOOSA     CLEAR     82  72  71 NE5       29.94S
6HR MIN TEMP:  82; 6HR MAX TEMP:  93;

DEMOPOLIS        N/A     82  69  65 CALM      29.94R
6HR MIN TEMP:  82; 6HR MAX TEMP:  92;

$$

ALZ015-024>026-033>036-041>044-230100-
CENTRAL ALABAMA

CITY           SKY/WX    TMP DP  RH WIND       PRES   REMARKS
BIRMINGHAM     PTCLDY    80  71  74 E3        30.00R
6HR MIN TEMP:  80; 6HR MAX TEMP:  90;

MONTGOMERY     CLEAR     83  68  60 SE3       29.94S
6HR MIN TEMP:  83; 6HR MAX TEMP:  94;

SHELBY CO ARPT PTCLDY    81  71  71 CALM      29.97R
6HR MIN TEMP:  80; 6HR MAX TEMP:  91;

MAXWELL AFB    CLEAR     80  73  78 CALM      29.94S
6HR MIN TEMP:  80; 6HR MAX TEMP:  91;

GREENVILLE     FAIR      80  72  76 CALM      29.95R
6HR MIN TEMP:  80; 6HR MAX TEMP:  93;

SELMA          FAIR      79  73  83 CALM      29.94R
PRATTVILLE     FAIR      78  74  88 CALM      29.94S
6HR MIN TEMP:  78; 6HR MAX TEMP:  91;

BESSEMER       FAIR      81  70  69 NE5       29.99R
6HR MIN TEMP:  78; 6HR MAX TEMP:  91;

TALLADEGA      FAIR     N/A N/A N/A MISG      29.99S
PELL CITY      CLEAR     72  72 100 CALM      29.99R
MARION         FAIR      80  74  82 CALM      29.94R
6HR MIN TEMP:  80; 6HR MAX TEMP:  92;

SYLACAUGA      FAIR      81  71  73 CALM      29.99R
6HR MIN TEMP:  81; 6HR MAX TEMP:  92;

$$

ALZ019-021-028-029-037-038-045>048-230100-
EAST CENTRAL ALABAMA

CITY           SKY/WX    TMP DP  RH WIND       PRES   REMARKS
ANNISTON       PTCLDY    74  71  91 CALM      29.99S
6HR MIN TEMP:  74; 6HR MAX TEMP:  91; 6HR PCP:  0.04;

ALEXANDER CITY CLEAR     78  73  83 N3        29.99R
6HR MIN TEMP:  78; 6HR MAX TEMP:  89;

AUBURN         NOT AVBL
$$

ALZ051>064-230100-
SOUTHWEST ALABAMA

CITY           SKY/WX    TMP DP  RH WIND       PRES   REMARKS
MOBILE         NOT AVBL
BROOKLEY FIELD NOT AVBL
EVERGREEN      CLEAR     77  74  90 CALM      29.94S
6HR MIN TEMP:  77; 6HR MAX TEMP:  91; 6HR PCP: TRACE;

$$

ALZ049-050-065>069-230100-
SOUTHEAST ALABAMA

CITY           SKY/WX    TMP DP  RH WIND       PRES   REMARKS
DOTHAN         CLEAR     79  74  84 CALM      29.98R
6HR MIN TEMP:  79; 6HR MAX TEMP:  91;

OZARK          CLEAR     77  73  85 CALM      29.94S
6HR MIN TEMP:  77; 6HR MAX TEMP:  90;

TROY           CLEAR     80  73  79 CALM      29.96S
6HR MIN TEMP:  78; 6HR MAX TEMP:  90;

EUFAULA        FAIR      81  72  74 CALM      29.95R
6HR MIN TEMP:  81; 6HR MAX TEMP:  93;

$$




USA.gov is the U.S. government's official web portal to all federal, state and local government web resources and services.